Location: Chervonnoye
(48.6000°N, 34.4000°E)
Time: 12:01:59
(UTC+00:00)

deb Kosmos-2237 - Pass Details

Date: 16 June 2021
Orbit: 850 x 1045 km, 71.0° (Epoch: 25 July)

Event Time Altitude Azimuth Distance (km) Brightness Sun altitude
Rises 21:18:30 0° 253° (WSW) 3,583 ? -17.8°
Reaches altitude 10° 21:21:30 10° 267° (W) 2,676 ? -17.9°
Maximum altitude 21:26:28 24° 320° (NW) 1,900 ? -17.9°
Drops below altitude 10° 21:31:39 10° 13° (NNE) 2,792 ? -18.0°
Sets 21:34:51 0° 27° (NNE) 3,772 ? -18.0°
